SWA2526 PHKO-PHOG

Flight info

Callsign SWA2526
Flight time 0h 24m
Altitude 14000
Route HARPO CAMPS4
Aircraft B738/M-SADE2E3GIJ4RWZ/LB1D1

Departure

Time 2026-04-25 07:35
Airport Ellison Onizuka Kona International Airport at Keāhole (PHKO)

Arrival

Time 2026-04-25 07:59
Airport Kahului International Airport (PHOG)
Time Latitude Longitude Altitude Speed Heading
2026-04-25 07:21 19.73506 -156.04221 73 ft 0 kts 45°
2026-04-25 07:26 19.73502 -156.04224 73 ft 2 kts 45°
2026-04-25 07:26 19.73489 -156.04239 72 ft 1 kts 45°
2026-04-25 07:26 19.73484 -156.04244 72 ft 0 kts 45°
2026-04-25 07:26 19.73483 -156.04245 72 ft 1 kts 46°
2026-04-25 07:27 19.73474 -156.04265 72 ft 4 kts 72°
2026-04-25 07:27 19.73466 -156.04292 71 ft 4 kts 72°
2026-04-25 07:27 19.73458 -156.04309 70 ft 0 kts
2026-04-25 07:27 19.73456 -156.04309 70 ft 0 kts 348°
2026-04-25 07:28 19.73459 -156.04309 70 ft 2 kts 348°
2026-04-25 07:28 19.73521 -156.04323 69 ft 13 kts 348°
2026-04-25 07:28 19.73624 -156.04329 67 ft 15 kts
2026-04-25 07:28 19.73738 -156.04320 66 ft 16 kts
2026-04-25 07:29 19.73857 -156.04309 67 ft 17 kts
2026-04-25 07:29 19.73973 -156.04300 70 ft 16 kts
2026-04-25 07:29 19.74088 -156.04288 70 ft 16 kts
2026-04-25 07:29 19.74203 -156.04280 70 ft 16 kts
2026-04-25 07:30 19.74320 -156.04269 70 ft 17 kts
2026-04-25 07:30 19.74444 -156.04259 71 ft 17 kts
2026-04-25 07:30 19.74570 -156.04248 71 ft 18 kts
2026-04-25 07:30 19.74693 -156.04234 72 ft 15 kts
2026-04-25 07:31 19.74803 -156.04227 74 ft 15 kts
2026-04-25 07:31 19.74908 -156.04216 75 ft 15 kts
2026-04-25 07:31 19.75017 -156.04208 75 ft 16 kts
2026-04-25 07:31 19.75133 -156.04198 75 ft 16 kts
2026-04-25 07:32 19.75235 -156.04189 76 ft 9 kts
2026-04-25 07:32 19.75299 -156.04184 77 ft 8 kts 358°
2026-04-25 07:32 19.75353 -156.04227 77 ft 17 kts 302°
2026-04-25 07:32 19.75372 -156.04327 73 ft 10 kts 272°
2026-04-25 07:33 19.75363 -156.04401 70 ft 9 kts 261°
2026-04-25 07:33 19.75346 -156.04430 70 ft 4 kts 216°
2026-04-25 07:33 19.75333 -156.04436 70 ft 0 kts 194°
2026-04-25 07:34 19.75332 -156.04436 70 ft 0 kts 194°
2026-04-25 07:34 19.75191 -156.04452 70 ft 57 kts 184°
2026-04-25 07:34 19.74452 -156.04512 67 ft 152 kts 184°
2026-04-25 07:34 19.73294 -156.04648 571 ft 183 kts 187°
2026-04-25 07:35 19.71947 -156.04965 1078 ft 201 kts 195°
2026-04-25 07:35 19.70663 -156.05539 1498 ft 206 kts 208°
2026-04-25 07:35 19.69474 -156.06483 1925 ft 228 kts 224°
2026-04-25 07:35 19.68478 -156.07884 2412 ft 243 kts 241°
2026-04-25 07:36 19.67914 -156.09595 2868 ft 250 kts 261°
2026-04-25 07:36 19.67925 -156.11424 3339 ft 249 kts 283°
2026-04-25 07:36 19.68590 -156.13075 3830 ft 248 kts 308°
2026-04-25 07:36 19.69891 -156.14237 4321 ft 245 kts 338°
2026-04-25 07:37 19.71549 -156.14496 4798 ft 243 kts 11°
2026-04-25 07:37 19.73003 -156.13663 5280 ft 243 kts 50°
2026-04-25 07:37 19.73553 -156.11997 5761 ft 250 kts 93°
2026-04-25 07:37 19.73320 -156.10205 6499 ft 244 kts 83°
2026-04-25 07:38 19.73833 -156.08557 7790 ft 242 kts 54°
2026-04-25 07:38 19.75186 -156.07405 8415 ft 268 kts 18°
2026-04-25 07:38 19.77021 -156.07340 8865 ft 267 kts 345°
2026-04-25 07:38 19.78633 -156.08278 9231 ft 266 kts 322°
2026-04-25 07:39 19.79882 -156.09749 9594 ft 270 kts 308°
2026-04-25 07:39 19.81065 -156.11308 9957 ft 272 kts 314°
2026-04-25 07:39 19.82460 -156.12654 10428 ft 275 kts 325°
2026-04-25 07:39 19.84145 -156.13747 10932 ft 295 kts 334°
2026-04-25 07:40 19.86041 -156.14697 11406 ft 303 kts 337°
2026-04-25 07:40 19.87980 -156.15578 11868 ft 298 kts 338°
2026-04-25 07:40 19.89845 -156.16415 12350 ft 286 kts 338°
2026-04-25 07:40 19.91658 -156.17241 12831 ft 286 kts 338°
2026-04-25 07:41 19.93514 -156.18100 13320 ft 290 kts 338°
2026-04-25 07:41 19.95356 -156.18962 13789 ft 292 kts 338°
2026-04-25 07:41 19.97240 -156.19849 14006 ft 300 kts 337°
2026-04-25 07:41 19.99137 -156.20743 14028 ft 296 kts 337°
2026-04-25 07:42 20.01023 -156.21634 14036 ft 296 kts 337°
2026-04-25 07:42 20.02903 -156.22520 14035 ft 294 kts 337°
2026-04-25 07:42 20.04789 -156.23410 14037 ft 293 kts 337°
2026-04-25 07:42 20.06644 -156.24286 14041 ft 294 kts 337°
2026-04-25 07:43 20.08538 -156.25179 14039 ft 294 kts 338°
2026-04-25 07:43 20.10395 -156.26054 14038 ft 293 kts 337°
2026-04-25 07:43 20.12273 -156.26941 14035 ft 294 kts 337°
2026-04-25 07:43 20.14133 -156.27820 14037 ft 293 kts 337°
2026-04-25 07:44 20.16021 -156.28711 14039 ft 293 kts 337°
2026-04-25 07:44 20.17879 -156.29588 14042 ft 293 kts 337°
2026-04-25 07:44 20.19740 -156.30467 14044 ft 293 kts 337°
2026-04-25 07:44 20.21617 -156.31355 14045 ft 293 kts 337°
2026-04-25 07:45 20.23490 -156.32240 14021 ft 295 kts 337°
2026-04-25 07:45 20.25398 -156.33144 13829 ft 296 kts 337°
2026-04-25 07:45 20.27237 -156.34015 13602 ft 284 kts 338°
2026-04-25 07:45 20.29024 -156.34860 13363 ft 283 kts 337°
2026-04-25 07:46 20.30866 -156.35731 13128 ft 288 kts 338°
2026-04-25 07:46 20.32698 -156.36598 12888 ft 284 kts 338°
2026-04-25 07:46 20.34491 -156.37448 12652 ft 280 kts 338°
2026-04-25 07:46 20.36273 -156.38292 12413 ft 279 kts 338°
2026-04-25 07:47 20.38050 -156.39127 12174 ft 278 kts 339°
2026-04-25 07:47 20.39882 -156.39757 11937 ft 276 kts 347°
2026-04-25 07:47 20.41758 -156.40181 11701 ft 275 kts 350°
2026-04-25 07:47 20.43649 -156.40579 11375 ft 271 kts 349°
2026-04-25 07:48 20.45456 -156.40999 11026 ft 261 kts 348°
2026-04-25 07:48 20.47185 -156.41432 10667 ft 254 kts 348°
2026-04-25 07:48 20.48889 -156.41914 10308 ft 252 kts 343°
2026-04-25 07:48 20.50473 -156.42688 9955 ft 252 kts 332°
2026-04-25 07:49 20.51975 -156.43669 9594 ft 247 kts 329°
2026-04-25 07:49 20.53400 -156.44640 9241 ft 240 kts 329°
2026-04-25 07:49 20.54801 -156.45566 8884 ft 235 kts 330°
2026-04-25 07:49 20.56190 -156.46457 8520 ft 230 kts 331°
2026-04-25 07:50 20.57550 -156.47321 8160 ft 226 kts 331°
2026-04-25 07:50 20.58888 -156.48172 7800 ft 223 kts 331°
2026-04-25 07:50 20.60215 -156.49017 7435 ft 221 kts 332°
2026-04-25 07:50 20.61542 -156.49863 7045 ft 219 kts 332°
2026-04-25 07:51 20.62830 -156.50688 6642 ft 216 kts 331°
2026-04-25 07:51 20.64013 -156.51686 6225 ft 217 kts 314°
2026-04-25 07:51 20.64697 -156.53113 5833 ft 218 kts 290°
2026-04-25 07:51 20.65071 -156.54680 5451 ft 215 kts 287°
2026-04-25 07:52 20.65518 -156.56145 5195 ft 204 kts 300°
2026-04-25 07:52 20.66417 -156.57216 4945 ft 183 kts 331°
2026-04-25 07:52 20.67518 -156.57741 4703 ft 169 kts 346°
2026-04-25 07:52 20.68669 -156.57993 4459 ft 163 kts
2026-04-25 07:53 20.69751 -156.57828 4243 ft 157 kts 20°
2026-04-25 07:53 20.70724 -156.57329 3946 ft 154 kts 39°
2026-04-25 07:53 20.71569 -156.56616 3598 ft 153 kts 33°
2026-04-25 07:53 20.72500 -156.56099 3300 ft 150 kts 33°
2026-04-25 07:54 20.73416 -156.55556 2996 ft 151 kts 31°
2026-04-25 07:54 20.74299 -156.54958 2712 ft 149 kts 45°
2026-04-25 07:54 20.74937 -156.54100 2485 ft 145 kts 50°
2026-04-25 07:54 20.75692 -156.53400 2445 ft 147 kts 37°
2026-04-25 07:55 20.76576 -156.52794 2333 ft 149 kts 30°
2026-04-25 07:55 20.77552 -156.52434 2208 ft 150 kts 15°
2026-04-25 07:55 20.78552 -156.52109 2209 ft 148 kts 28°
2026-04-25 07:55 20.79405 -156.51502 2209 ft 147 kts 40°
2026-04-25 07:56 20.80143 -156.50760 2257 ft 146 kts 48°
2026-04-25 07:56 20.80793 -156.49954 2332 ft 142 kts 51°
2026-04-25 07:56 20.81436 -156.49185 2321 ft 135 kts 45°
2026-04-25 07:56 20.82189 -156.48590 2079 ft 132 kts 34°
2026-04-25 07:57 20.82975 -156.48062 1648 ft 130 kts 35°
2026-04-25 07:57 20.83717 -156.47514 1348 ft 128 kts 37°
2026-04-25 07:57 20.84444 -156.46947 1187 ft 130 kts 37°
2026-04-25 07:57 20.85195 -156.46405 1046 ft 127 kts 36°
2026-04-25 07:58 20.85918 -156.45856 893 ft 131 kts 36°
2026-04-25 07:58 20.86678 -156.45312 717 ft 128 kts 36°
2026-04-25 07:58 20.87395 -156.44780 475 ft 127 kts 36°
2026-04-25 07:58 20.88126 -156.44226 279 ft 124 kts 36°
2026-04-25 07:59 20.88833 -156.43697 152 ft 126 kts 36°
2026-04-25 07:59 20.89539 -156.43175 67 ft 114 kts 36°
2026-04-25 07:59 20.90040 -156.42799 36 ft 39 kts 35°
2026-04-25 07:59 20.90195 -156.42685 35 ft 21 kts 35°
2026-04-25 08:00 20.90253 -156.42686 34 ft 7 kts 262°
2026-04-25 08:00 20.90189 -156.42824 33 ft 28 kts 236°
2026-04-25 08:00 20.90065 -156.42940 34 ft 21 kts 215°
2026-04-25 08:00 20.90027 -156.42967 35 ft 0 kts 214°
2026-04-25 08:01 20.90026 -156.42969 35 ft 1 kts 214°
2026-04-25 08:01 20.90001 -156.42987 36 ft 11 kts 214°
2026-04-25 08:01 20.89889 -156.43069 39 ft 23 kts 215°
2026-04-25 08:02 20.89769 -156.43159 43 ft 16 kts 215°
2026-04-25 08:02 20.89678 -156.43228 47 ft 15 kts 214°
2026-04-25 08:02 20.89597 -156.43286 51 ft 12 kts 214°
2026-04-25 08:02 20.89536 -156.43337 55 ft 9 kts 237°
2026-04-25 08:03 20.89536 -156.43401 55 ft 9 kts 294°
2026-04-25 08:03 20.89558 -156.43439 52 ft 7 kts 304°
2026-04-25 08:03 20.89575 -156.43466 51 ft 0 kts 304°